IGO300 VOBL-VEAT

Flight info

Callsign IGO300
Flight time N/A
Altitude 37000
Route ANIRO8A ANIRO W47 KAMGU DCT VVZ A465 CEA B593 CML
Aircraft A20N/M-SDE2E3FGHIRWXY/LB1

Departure

Time 2026-05-07 11:03
Airport Kempegowda International Airport Bengaluru (VOBL)

Arrival

Time N/A
Airport Agartala - Maharaja Bir Bikram Airport (VEAT)
Time Latitude Longitude Altitude Speed Heading
2026-05-07 10:33 13.20169 77.70958 3011 ft 0 kts 181°
2026-05-07 10:46 13.20182 77.70958 3011 ft 2 kts 182°
2026-05-07 10:46 13.20198 77.70959 3011 ft 2 kts 184°
2026-05-07 10:46 13.20215 77.70960 3018 ft 2 kts 186°
2026-05-07 10:47 13.20231 77.70962 3015 ft 2 kts 191°
2026-05-07 10:47 13.20247 77.70966 3016 ft 2 kts 202°
2026-05-07 10:47 13.20260 77.70976 3014 ft 2 kts 249°
2026-05-07 10:47 13.20262 77.70986 3018 ft 0 kts 272°
2026-05-07 10:49 13.20263 77.70975 3014 ft 3 kts 272°
2026-05-07 10:49 13.20263 77.70947 3011 ft 5 kts 270°
2026-05-07 10:50 13.20263 77.70899 3011 ft 8 kts 270°
2026-05-07 10:50 13.20264 77.70833 3011 ft 10 kts 270°
2026-05-07 10:50 13.20264 77.70750 3011 ft 13 kts 270°
2026-05-07 10:50 13.20265 77.70654 3011 ft 15 kts 270°
2026-05-07 10:51 13.20266 77.70543 3011 ft 17 kts 270°
2026-05-07 10:51 13.20270 77.70420 3011 ft 18 kts 283°
2026-05-07 10:51 13.20347 77.70394 3011 ft 13 kts 357°
2026-05-07 10:51 13.20429 77.70392 3011 ft 0 kts
2026-05-07 10:53 13.20432 77.70393 3011 ft 1 kts
2026-05-07 10:53 13.20451 77.70393 3011 ft 4 kts
2026-05-07 10:53 13.20489 77.70393 3011 ft 7 kts 357°
2026-05-07 10:53 13.20530 77.70368 3011 ft 8 kts 293°
2026-05-07 10:54 13.20535 77.70308 3011 ft 10 kts 271°
2026-05-07 10:54 13.20536 77.70233 3011 ft 12 kts 270°
2026-05-07 10:54 13.20536 77.70142 3011 ft 14 kts 270°
2026-05-07 10:54 13.20535 77.70036 3011 ft 16 kts 270°
2026-05-07 10:55 13.20535 77.69919 3011 ft 18 kts 269°
2026-05-07 10:55 13.20538 77.69787 3011 ft 19 kts 272°
2026-05-07 10:55 13.20540 77.69646 3011 ft 21 kts 270°
2026-05-07 10:55 13.20540 77.69492 3010 ft 22 kts 271°
2026-05-07 10:56 13.20542 77.69328 3010 ft 23 kts 270°
2026-05-07 10:56 13.20543 77.69160 3010 ft 24 kts 270°
2026-05-07 10:56 13.20544 77.68983 3010 ft 25 kts 268°
2026-05-07 10:56 13.20547 77.68803 3011 ft 26 kts 271°
2026-05-07 10:57 13.20550 77.68681 3011 ft 0 kts 271°
2026-05-07 10:57 13.20550 77.68670 3011 ft 3 kts 271°
2026-05-07 10:57 13.20553 77.68641 3011 ft 5 kts 281°
2026-05-07 10:57 13.20580 77.68617 3011 ft 6 kts 345°
2026-05-07 10:58 13.20603 77.68615 3011 ft 0 kts 358°
2026-05-07 11:00 13.20616 77.68615 3011 ft 3 kts
2026-05-07 11:00 13.20647 77.68617 3011 ft 6 kts
2026-05-07 11:00 13.20691 77.68633 3011 ft 8 kts 40°
2026-05-07 11:01 13.20718 77.68686 3011 ft 9 kts 88°
2026-05-07 11:01 13.20718 77.68758 3011 ft 9 kts 90°
2026-05-07 11:01 13.20718 77.68760 3011 ft 0 kts 90°
2026-05-07 11:02 13.20718 77.68769 3011 ft 2 kts 90°
2026-05-07 11:02 13.20718 77.68828 3011 ft 24 kts 90°
2026-05-07 11:02 13.20714 77.69252 3011 ft 92 kts 90°
2026-05-07 11:02 13.20708 77.70096 3011 ft 144 kts 90°
2026-05-07 11:03 13.20675 77.71266 3145 ft 172 kts 93°
2026-05-07 11:03 13.20650 77.72434 3958 ft 155 kts 90°
2026-05-07 11:03 13.20637 77.73514 4632 ft 147 kts 90°
2026-05-07 11:03 13.20638 77.74533 5173 ft 143 kts 89°
2026-05-07 11:04 13.20652 77.75560 5607 ft 152 kts 88°
2026-05-07 11:04 13.20687 77.76863 5482 ft 212 kts 87°
2026-05-07 11:04 13.20750 77.78458 6231 ft 220 kts 86°
2026-05-07 11:04 13.20823 77.79951 7535 ft 207 kts 83°
2026-05-07 11:05 13.21308 77.81334 8360 ft 213 kts 52°
2026-05-07 11:05 13.22323 77.82474 9215 ft 216 kts 46°
2026-05-07 11:05 13.23412 77.83523 10090 ft 218 kts 38°
2026-05-07 11:05 13.24697 77.84371 10856 ft 223 kts 27°
2026-05-07 11:06 13.26151 77.84991 11601 ft 227 kts 20°
2026-05-07 11:06 13.27590 77.85683 12251 ft 235 kts 38°
2026-05-07 11:06 13.28933 77.86685 12929 ft 231 kts 36°
2026-05-07 11:06 13.30221 77.87714 13084 ft 246 kts 49°
2026-05-07 11:07 13.30917 77.88674 13253 ft 255 kts 59°